[[{"header":{"parameterUnit":"m.s-1","parameterCategory":1,"la1":30.2992,"la2":30.254,"lo1":-89.0895,"lo2":-89.0443,"dy":0.0025,"dx":0.0025,"nx":19,"ny":19,"refTime":"2026-04-25T03:00:00:Z","depth":0,"parameterNumber":2,"parameterNumberName":"U-component_of_WINDS"},"data":[0,0,0,-0.0716,-0.0714,-0.0584,-0.0584,-0.0431,-0.043,0,0,0,0,0,0,0,0,0,0,0,-0.0765,-0.0764,-0.0717,-0.0714,-0.0585,-0.0584,-0.0431,-0.043,0,0,0,0,0,0,0,0,0,0,0,-0.0765,-0.0764,-0.0764,-0.0713,-0.0585,-0.0584,-0.0432,-0.0524,0,0,0,0,0,0,0,0,0,0,-0.0647,-0.0703,-0.0765,-0.0764,-0.0713,-0.0585,-0.0584,-0.0528,-0.0518,-0.0496,0,-0.0481,0,-0.0453,-0.0421,-0.042,0,0,0,-0.0705,-0.0711,-0.0667,-0.0763,-0.0712,-0.0585,-0.064,-0.0523,-0.0511,-0.0483,-0.0479,-0.0473,-0.0451,-0.042,-0.0419,-0.0324,-0.0324,0,0,-0.0713,-0.0746,-0.0675,-0.0661,-0.0684,-0.0645,-0.0637,-0.0516,-0.0512,-0.0478,-0.0469,-0.0448,-0.0419,-0.0418,-0.0324,-0.0324,0,0,0,-0.0739,-0.0752,-0.0711,-0.0667,-0.0643,-0.0641,-0.0632,-0.0518,-0.0501,-0.0467,-0.0447,-0.0418,-0.0417,-0.0324,-0.0324,-0.0355,0,0,0,-0.0743,-0.0767,-0.0714,-0.0734,-0.0646,-0.0579,-0.0637,-0.051,-0.0495,-0.0447,-0.0418,-0.0415,-0.0324,-0.0324,-0.0354,-0.0363,0,0,0,-0.077,-0.077,-0.0755,-0.0736,-0.0682,-0.058,-0.0557,-0.0506,-0.0483,-0.042,-0.0415,-0.0324,-0.0324,-0.0353,-0.0362,-0.0348,0,0,0,-0.0808,-0.0783,-0.0756,-0.072,-0.0683,-0.0601,-0.0557,-0.0494,-0.0444,-0.0418,-0.0324,-0.0324,-0.0353,-0.0361,-0.0348,-0.0343,-0.0345,0,0,-0.0795,-0.0783,-0.0759,-0.0731,-0.0664,-0.0618,-0.0554,-0.0475,-0.0436,-0.0363,-0.036,-0.0354,-0.0362,-0.0348,-0.034,-0.0342,0,0,0,-0.0766,-0.075,-0.0724,-0.068,-0.062,-0.0569,-0.0497,-0.0467,-0.0403,-0.0406,-0.0344,-0.0348,-0.0338,-0.0334,-0.0336,-0.0325,-0.0323,-0.0323,-0.0323,-0.0797,-0.0751,-0.0708,-0.0647,-0.0604,-0.053,-0.049,-0.0437,-0.0402,-0.0388,-0.0366,-0.0367,-0.0364,-0.0365,-0.0355,-0.036,-0.036,-0.036,-0.036,-0.0774,-0.0743,-0.0699,-0.0642,-0.0593,-0.0543,-0.0471,-0.0448,-0.0393,-0.038,-0.0369,-0.0359,-0.0368,-0.0356,-0.0362,-0.0362,-0.0361,-0.0361,-0.0361,-0.0789,-0.0766,-0.0732,-0.0663,-0.0614,-0.0552,-0.0503,-0.0459,-0.0417,-0.0407,-0.0378,-0.0378,-0.0372,-0.0396,-0.0396,-0.0396,-0.0396,-0.0396,-0.0396,-0.0818,-0.0778,-0.0743,-0.0679,-0.0644,-0.0593,-0.0519,-0.0483,-0.0431,-0.0403,-0.0403,-0.0369,-0.0378,-0.0381,-0.0396,-0.0396,-0.0396,-0.0396,-0.0396,-0.0812,-0.0807,-0.0753,-0.0719,-0.0639,-0.0593,-0.0538,-0.0469,-0.0433,-0.041,-0.0378,-0.0391,-0.0375,-0.0373,-0.0376,-0.0388,-0.0388,-0.0388,-0.0388,-0.0825,-0.0813,-0.0748,-0.0696,-0.064,-0.0585,-0.0524,-0.0465,-0.0403,-0.0378,-0.0369,-0.0368,-0.0369,-0.0352,-0.0351,-0.0352,-0.0359,-0.0359,-0.0359,-0.0818,-0.0799,-0.0756,-0.0698,-0.0633,-0.0577,-0.0517,-0.0458,-0.0386,-0.0357,-0.0356,-0.0358,-0.0356,-0.0358,-0.0329,-0.0329,-0.033,0,0]},{"header":{"parameterUnit":"m.s-1","parameterCategory":1,"la1":30.2992,"la2":30.254,"lo1":-89.0895,"lo2":-89.0443,"dy":0.0025,"dx":0.0025,"nx":19,"ny":19,"refTime":"2026-04-25T03:00:00:Z","depth":0,"parameterNumber":3,"parameterNumberName":"V-component_of_WINDS"},"data":[0,0,0,4.3611,4.3613,4.3693,4.3693,4.3802,4.3803,0,0,0,0,0,0,0,0,0,0,0,4.3594,4.3595,4.3611,4.3613,4.3693,4.3693,4.3802,4.3803,0,0,0,0,0,0,0,0,0,0,0,4.3593,4.3594,4.3595,4.3614,4.3693,4.3693,4.3802,4.3739,0,0,0,0,0,0,0,0,0,0,4.366,4.3649,4.3594,4.3596,4.3614,4.3693,4.3693,4.3736,4.3743,4.377,0,4.3797,0,4.3802,4.3811,4.3812,0,0,0,4.3608,4.3644,4.366,4.3596,4.3615,4.3693,4.3655,4.3739,4.3748,4.378,4.3799,4.3802,4.3804,4.3812,4.3813,4.3993,4.3994,0,0,4.3604,4.361,4.3655,4.3666,4.3656,4.3653,4.3658,4.3744,4.3764,4.3799,4.3805,4.3806,4.3813,4.3814,4.3992,4.3993,0,0,0,4.3595,4.3607,4.3622,4.3662,4.3676,4.3655,4.3661,4.3761,4.3765,4.3806,4.3807,4.3814,4.3815,4.3991,4.3992,4.4054,0,0,0,4.3592,4.3602,4.362,4.3625,4.3674,4.3719,4.3676,4.3759,4.3769,4.3807,4.3814,4.3816,4.399,4.3992,4.405,4.4081,0,0,0,4.3586,4.3601,4.3615,4.3625,4.366,4.3718,4.3727,4.3761,4.377,4.3812,4.3816,4.3989,4.3991,4.4046,4.4075,4.4133,0,0,0,4.3581,4.3666,4.3616,4.3711,4.3659,4.3756,4.3726,4.3797,4.3841,4.3814,4.399,4.3992,4.4045,4.4071,4.4129,4.4183,4.4206,0,0,4.3691,4.3679,4.3734,4.3693,4.3801,4.3743,4.386,4.3891,4.3888,4.3958,4.3962,4.4051,4.4075,4.4132,4.4332,4.435,0,0,0,4.3771,4.3811,4.3839,4.3882,4.3911,4.3939,4.3953,4.3966,4.4025,4.3926,4.4087,4.4101,4.4134,4.4159,4.4175,4.4204,4.4004,4.4004,4.4004,4.3934,4.3929,4.4021,4.4027,4.4069,4.4086,4.412,4.4139,4.4117,4.4156,4.4177,4.4299,4.4329,4.4341,4.4371,4.4204,4.4205,4.4205,4.4205,4.4095,4.4151,4.4127,4.4207,4.4202,4.4268,4.4288,4.4272,4.4333,4.4282,4.4311,4.4256,4.4362,4.4388,4.4209,4.4209,4.4208,4.4208,4.4207,4.4201,4.4228,4.4244,4.431,4.4361,4.4362,4.4424,4.4415,4.4407,4.4436,4.4458,4.4457,4.4456,4.4447,4.4448,4.4448,4.4448,4.4449,4.4449,4.4305,4.4322,4.4376,4.4418,4.4447,4.4484,4.4504,4.4531,4.456,4.4548,4.4548,4.4525,4.4373,4.4336,4.4456,4.4454,4.4454,4.4453,4.4453,4.4471,4.4433,4.4517,4.4547,4.4597,4.4649,4.4639,4.4697,4.4718,4.475,4.4722,4.461,4.4596,4.4584,4.4553,4.4721,4.4721,4.4721,4.4722,4.4561,4.4555,4.4641,4.4689,4.4736,4.4736,4.4832,4.485,4.4861,4.4875,4.4849,4.4807,4.4795,4.4788,4.4771,4.4742,4.4955,4.4956,4.4956,4.4663,4.4662,4.4745,4.476,4.4799,4.4833,4.4924,4.498,4.4985,4.4965,4.4885,4.4876,4.4808,4.4786,4.4763,4.4737,4.4683,0,0]}]]